User: anonymous   Login
Location: *
(40.7873°S, 98.7174°E)
Time: 00:24:18
(UTC+00:00)
Language:

NOAA 16 DEB - Orbit

View from above orbital plane
View from above orbital plane
View from above satellite
View from above satellite

Ground track
Ground track

The orbit data is extracted from the following two-line orbital elements,

1 41530U 00055NE  22265.57847519  .00004337  00000-0  13894-2 0  9990
2 41530  98.7839  35.6629 0087746  37.6509 323.0775 14.37868140335653
Epoch (UTC): 22 September 2022 13:53:00
Eccentricity: 0.0087746
inclination: 98.7839°
perigee height: 703 km
apogee height: 828 km
right ascension of ascending node: 35.6629°
argument of perigee: 37.6509°
revolutions per day: 14.37868140
mean anomaly at epoch: 323.0775°
orbit number at epoch: 33565

The dashed part of the orbit path shows where the satellite is in the earth's shadow,  

DLR